OneWeb SL0538

operational
NORAD ID: 56047 Int'l Des: 2023-043 Owner: ONEWEBN Country: UK Constellation: oneweb
LEOCIRCULARPOLARONEWEB_TYPE

关于 OneWeb SL0538

正在加载描述...

实时位置

正在加载3D地球...

即将过境

高度历史

Altitude vs Time

uPlot chart will show altitude changes over time

两行轨道根数

1 56047U 23043B 26034.12962390 .00000108 00000-0 24931-3 0 9992
2 56047 87.9007 255.4610 0001502 99.0190 261.1111 13.16593827141334
Epoch: Feb 3, 2026 • Age: 9 hours

当前状态

高度 1226.3 km
速度 7.24 km/s
星下点 -75.28°S, 63.99°W
发射日期 Mar 26, 2023
运行时间 2.8 years
类型 internet

技术详情

分类 Payload
质量 148.00 kg
干质量 140.00 kg
总质量 148.00 kg
长度 1.30 m
直径 1.00 m
跨度 5.00 m
形状 Trapezoid+2 pan
制造商 ONEWUS
平台类型 ARROW
阶段状态 In Orbit
所有者/国家 ONEWEBN/UK

大型星座

Loading constellations...